Lid_Strength_Index
2 2 1 1 1 0 1 1 1 1 1 2 3 3 4 4 4 4 5 5 4 4 4 4 4 3 4 3 3 3 3 3 3 3 3 2 -0 -1 -1 -1 -0 1 1
3 2 2 1 1 1 1 1 1 1 2 2 2 2 3 4 5 5 5 5 5 5 5 4 4 4 4 4 4 4 4 4 3 5 4 4 2 1 1 0 1 1 1
3 3 3 2 1 2 2 2 1 1 2 2 2 3 4 5 6 6 6 5 5 5 4 4 4 4 4 5 4 4 4 5 4 4 5 6 5 5 2 2 2 3 3
3 3 3 2 2 2 2 2 2 2 3 2 4 5 6 6 6 6 6 6 5 5 5 5 4 4 4 5 5 5 5 4 6 4 4 4 5 6 6 4 4 4 4
4 4 3 2 2 2 2 2 2 2 3 3 3 4 4 5 6 6 6 6 6 6 5 5 5 5 5 5 5 5 5 6 6 6 6 5 5 6 7 8 6 5 4
4 4 3 2 2 2 2 3 3 3 3 3 3 3 4 5 6 6 6 6 6 6 6 6 6 6 6 6 6 6 6 6 6 6 7 7 8 9 9 9 7 7 5
4 4 3 2 2 3 3 3 4 4 4 4 3 3 3 5 6 6 6 6 7 7 7 6 6 7 7 7 7 7 7 8 7 7 8 8 8 7 7 7 8 8 6
3 3 3 2 2 3 3 4 4 5 4 4 3 3 4 5 5 5 6 6 7 7 7 7 7 7 8 8 8 8 8 7 8 8 7 7 7 7 8 9 10 9 7
4 3 3 2 2 3 3 4 5 5 5 4 4 4 5 5 5 5 6 7 7 7 7 7 8 8 8 8 9 9 9 8 8 7 7 7 8 7 8 9 9 10 11
4 3 3 3 2 2 3 4 5 5 6 5 5 5 5 5 5 6 7 7 7 8 8 8 8 9 9 9 9 9 9 9 8 8 8 8 8 8 8 9 9 9 11
3 3 3 2 2 2 3 4 5 6 7 7 7 6 7 6 6 7 8 9 9 8 9 9 10 10 10 10 9 10 10 9 9 9 9 9 8 8 8 8 8 8 8
3 3 2 2 2 2 3 4 5 6 7 7 7 7 7 7 8 9 9 9 9 9 10 10 11 11 11 10 10 10 10 10 10 9 9 9 9 9 9 9 9 8 8
3 3 3 3 2 2 2 4 5 5 6 7 8 8 8 9 10 11 11 11 10 11 11 11 12 12 11 11 10 10 10 10 10 10 10 10 10 10 9 9 9 9 9
3 3 3 3 3 2 2 3 5 5 6 7 8 8 9 10 11 11 11 11 11 11 12 12 12 12 12 10 10 10 10 11 11 11 11 12 12 12 10 10 10 10 10
4 4 4 3 3 3 4 4 5 6 6 7 8 9 10 11 11 12 12 12 11 12 12 12 12 12 11 11 11 10 11 11 12 12 13 13 13 13 13 12 12 11 11
4 4 3 3 3 4 5 5 6 6 7 8 9 10 11 12 12 12 13 13 12 12 12 12 13 13 13 14 13 11 12 12 12 12 12 12 13 14 14 14 14 14 13
4 4 3 3 3 4 5 6 7 7 8 9 10 10 12 12 13 14 14 14 13 12 13 13 12 14 14 14 13 11 12 12 12 12 12 13 13 12 13 14 14 15 14
4 3 3 3 4 5 6 6 7 9 10 11 12 12 13 13 14 14 14 13 12 12 12 11 12 13 14 14 13 12 12 13 13 13 12 13 14 14 13 13 14 15 16
3 3 2 2 3 6 7 8 10 11 12 13 14 14 14 15 15 14 13 13 13 13 13 12 13 14 15 14 14 12 13 13 13 13 13 14 15 16 14 14 15 15 15
3 3 2 3 3 6 8 12 13 13 14 14 14 14 13 13 14 14 13 13 13 13 13 13 13 14 15 14 13 12 12 13 13 14 15 15 15 16 15 14 15 17 17
3 2 2 3 7 8 10 12 12 12 13 13 13 13 13 14 14 14 13 13 13 13 13 14 14 14 14 14 14 13 11 11 12 12 14 15 16 16 15 16 16 17 14
3 3 4 4 5 7 10 12 12 12 12 12 12 13 14 14 14 13 13 13 13 13 14 14 14 13 13 14 14 13 12 11 11 13 14 15 16 16 16 16 16 16 14
4 4 4 6 6 6 8 10 12 12 12 12 14 14 14 13 13 13 13 13 13 13 13 13 13 13 13 14 14 14 14 13 12 13 15 16 17 16 16 16 16 14 14
4 4 5 7 7 7 8 10 11 11 12 13 14 14 14 14 14 13 12 13 12 12 12 12 12 13 13 14 14 14 14 15 16 17 16 17 17 17 16 14 14 15 15
4 4 5 7 8 9 9 10 11 11 12 12 13 13 14 14 13 12 12 12 11 11 11 10 11 12 13 12 13 13 13 13 14 16 16 15 14 14 14 15 15 14 14
4 5 6 7 9 9 10 10 10 10 10 11 12 13 12 13 12 12 13 12 12 12 11 11 9 10 10 12 13 14 14 16 16 15 15 15 14 14 14 14 15 15 16